[[{"header":{"parameterUnit":"m.s-1","parameterCategory":1,"la1":30.2992,"la2":30.254,"lo1":-89.0895,"lo2":-89.0443,"dy":0.0025,"dx":0.0025,"nx":19,"ny":19,"refTime":"2026-04-09T21:00:00:Z","depth":0,"parameterNumber":2,"parameterNumberName":"U-component_of_WINDS"},"data":[0,0,0,-5.243,-5.2434,-5.2642,-5.2642,-5.2949,-5.2952,0,0,0,0,0,0,0,0,0,0,0,-5.2393,-5.2396,-5.2429,-5.2435,-5.2642,-5.2642,-5.2948,-5.2952,0,0,0,0,0,0,0,0,0,0,0,-5.2391,-5.2395,-5.2398,-5.2436,-5.2641,-5.2642,-5.2947,-5.2777,0,0,0,0,0,0,0,0,0,0,-5.2569,-5.2558,-5.2394,-5.2399,-5.2437,-5.2641,-5.2642,-5.2768,-5.2787,-5.2873,0,-5.2954,0,-5.2958,-5.2975,-5.2976,0,0,0,-5.2417,-5.2542,-5.2576,-5.2399,-5.2439,-5.2641,-5.2543,-5.2778,-5.2801,-5.2899,-5.2958,-5.2968,-5.2963,-5.2977,-5.2979,-5.3526,-5.3529,0,0,-5.2406,-5.2444,-5.2561,-5.2591,-5.2561,-5.2537,-5.255,-5.2791,-5.2859,-5.2959,-5.2975,-5.2968,-5.2979,-5.2982,-5.3523,-5.3527,0,0,0,-5.2385,-5.2437,-5.2463,-5.258,-5.2614,-5.2543,-5.2558,-5.2848,-5.2853,-5.2978,-5.2972,-5.2981,-5.2986,-5.3519,-5.3524,-5.3728,0,0,0,-5.2377,-5.2424,-5.2459,-5.2484,-5.261,-5.2733,-5.2611,-5.2836,-5.2862,-5.297,-5.2982,-5.2989,-5.3515,-5.3522,-5.3714,-5.3819,0,0,0,-5.2371,-5.2423,-5.2461,-5.2486,-5.2576,-5.2728,-5.2747,-5.2841,-5.286,-5.2976,-5.299,-5.3512,-5.352,-5.3702,-5.3799,-5.3974,0,0,0,-5.2376,-5.2641,-5.2465,-5.2759,-5.2574,-5.2852,-5.2745,-5.295,-5.3075,-5.2983,-5.3516,-5.3524,-5.3698,-5.3786,-5.3961,-5.4129,-5.4202,0,0,-5.2732,-5.2685,-5.2855,-5.2703,-5.3022,-5.2818,-5.3167,-5.3245,-5.3223,-5.3426,-5.3439,-5.3719,-5.3797,-5.3971,-5.4597,-5.4655,0,0,0,-5.2981,-5.3103,-5.3179,-5.3298,-5.3363,-5.3428,-5.3448,-5.3477,-5.3648,-5.3334,-5.3827,-5.3873,-5.3974,-5.4052,-5.4102,-5.4186,-5.3561,-5.356,-5.3559,-5.3541,-5.3495,-5.3773,-5.3752,-5.3869,-5.3886,-5.3977,-5.4019,-5.394,-5.4057,-5.4119,-5.4503,-5.4597,-5.4633,-5.4722,-5.4202,-5.4203,-5.4204,-5.4204,-5.4059,-5.4226,-5.4112,-5.4341,-5.4291,-5.4483,-5.451,-5.4448,-5.462,-5.4454,-5.454,-5.4364,-5.4699,-5.4774,-5.4219,-5.4216,-5.4215,-5.4213,-5.4212,-5.4422,-5.4494,-5.4523,-5.4688,-5.4822,-5.4791,-5.4961,-5.4909,-5.4862,-5.4948,-5.5006,-5.5003,-5.4994,-5.4979,-5.498,-5.4981,-5.4983,-5.4984,-5.4984,-5.4788,-5.4814,-5.4962,-5.5052,-5.512,-5.5204,-5.5223,-5.5289,-5.535,-5.5299,-5.53,-5.521,-5.4739,-5.4623,-5.5005,-5.5001,-5.4999,-5.4997,-5.4995,-5.5334,-5.5201,-5.5431,-5.55,-5.56,-5.5735,-5.5666,-5.5806,-5.5853,-5.5938,-5.5829,-5.5489,-5.5439,-5.5399,-5.5302,-5.5837,-5.5837,-5.5837,-5.5838,-5.5641,-5.5609,-5.5831,-5.5944,-5.6049,-5.6009,-5.6271,-5.6287,-5.6284,-5.631,-5.6225,-5.6092,-5.6053,-5.6026,-5.5972,-5.5881,-5.6552,-5.6552,-5.6553,-5.5974,-5.5949,-5.6182,-5.6174,-5.6248,-5.6313,-5.6557,-5.6692,-5.666,-5.6581,-5.633,-5.63,-5.6084,-5.6016,-5.5934,-5.5852,-5.5684,0,0]},{"header":{"parameterUnit":"m.s-1","parameterCategory":1,"la1":30.2992,"la2":30.254,"lo1":-89.0895,"lo2":-89.0443,"dy":0.0025,"dx":0.0025,"nx":19,"ny":19,"refTime":"2026-04-09T21:00:00:Z","depth":0,"parameterNumber":3,"parameterNumberName":"V-component_of_WINDS"},"data":[0,0,0,-0.2778,-0.2776,-0.2679,-0.2678,-0.2548,-0.2546,0,0,0,0,0,0,0,0,0,0,0,-0.2807,-0.2806,-0.2778,-0.2775,-0.2679,-0.2678,-0.2548,-0.2546,0,0,0,0,0,0,0,0,0,0,0,-0.2807,-0.2806,-0.2805,-0.2775,-0.2679,-0.2678,-0.2548,-0.2623,0,0,0,0,0,0,0,0,0,0,-0.2717,-0.2746,-0.2807,-0.2805,-0.2775,-0.2679,-0.2678,-0.2626,-0.2618,-0.259,0,-0.257,0,-0.2556,-0.2538,-0.2537,0,0,0,-0.2774,-0.2753,-0.2727,-0.2805,-0.2774,-0.2679,-0.2722,-0.2622,-0.2612,-0.2579,-0.2568,-0.2563,-0.2554,-0.2537,-0.2536,-0.2389,-0.2388,0,0,-0.2779,-0.2789,-0.2733,-0.2721,-0.274,-0.2725,-0.2719,-0.2616,-0.2602,-0.2567,-0.256,-0.2552,-0.2536,-0.2535,-0.2389,-0.2388,0,0,0,-0.2796,-0.2793,-0.2769,-0.2726,-0.2709,-0.2722,-0.2715,-0.2607,-0.2599,-0.2558,-0.255,-0.2535,-0.2534,-0.239,-0.2389,-0.2367,0,0,0,-0.2799,-0.2802,-0.2771,-0.2776,-0.2711,-0.2658,-0.2709,-0.2606,-0.2594,-0.2551,-0.2535,-0.2532,-0.2391,-0.2389,-0.237,-0.2355,0,0,0,-0.2813,-0.2804,-0.279,-0.2777,-0.2736,-0.2659,-0.2645,-0.2603,-0.2589,-0.2537,-0.2532,-0.2391,-0.239,-0.2371,-0.2358,-0.2317,0,0,0,-0.283,-0.2773,-0.279,-0.2722,-0.2737,-0.2649,-0.2646,-0.2579,-0.2532,-0.2535,-0.2391,-0.2389,-0.2372,-0.236,-0.2319,-0.2284,-0.2271,0,0,-0.2763,-0.2765,-0.2724,-0.2737,-0.2648,-0.2663,-0.2568,-0.2515,-0.25,-0.2425,-0.2422,-0.2369,-0.2358,-0.2318,-0.2196,-0.2186,0,0,0,-0.2706,-0.2676,-0.2651,-0.2608,-0.2568,-0.253,-0.2491,-0.247,-0.2406,-0.2465,-0.2344,-0.2337,-0.2313,-0.2295,-0.2286,-0.2263,-0.2382,-0.2382,-0.2382,-0.2623,-0.2609,-0.2539,-0.2512,-0.2469,-0.2429,-0.2391,-0.2356,-0.2353,-0.2324,-0.2301,-0.223,-0.221,-0.2203,-0.218,-0.2283,-0.2283,-0.2283,-0.2283,-0.2521,-0.2476,-0.2473,-0.2405,-0.2387,-0.2328,-0.2284,-0.2284,-0.2223,-0.2247,-0.2224,-0.225,-0.2193,-0.2171,-0.2281,-0.2281,-0.2282,-0.2282,-0.2282,-0.2464,-0.244,-0.2418,-0.2353,-0.2303,-0.2276,-0.2218,-0.2204,-0.219,-0.2168,-0.2141,-0.2141,-0.2137,-0.2157,-0.2156,-0.2156,-0.2156,-0.2156,-0.2155,-0.2413,-0.2389,-0.2344,-0.2295,-0.2264,-0.2221,-0.2177,-0.2145,-0.2105,-0.2099,-0.2099,-0.2095,-0.2191,-0.2214,-0.2151,-0.2152,-0.2153,-0.2153,-0.2153,-0.2313,-0.2333,-0.2263,-0.2232,-0.2171,-0.2121,-0.2104,-0.2039,-0.201,-0.198,-0.1982,-0.2056,-0.2056,-0.2063,-0.2082,-0.1988,-0.1988,-0.1988,-0.1988,-0.2263,-0.2263,-0.2187,-0.2137,-0.2088,-0.2065,-0.198,-0.1944,-0.1909,-0.1889,-0.1901,-0.1925,-0.1933,-0.1928,-0.1938,-0.1955,-0.1831,-0.1831,-0.1831,-0.2199,-0.2193,-0.2126,-0.2096,-0.2046,-0.2002,-0.1922,-0.1861,-0.1825,-0.1824,-0.1872,-0.1879,-0.1918,-0.1932,-0.1931,-0.1947,-0.1978,0,0]}]]